28.03.2024;10:45;13,91
28.03.2024;10:30;13,91
28.03.2024;10:15;13,91
28.03.2024;10:00;13,87
28.03.2024;09:45;13,87
28.03.2024;09:30;13,91
28.03.2024;09:15;13,91
28.03.2024;09:00;13,87
28.03.2024;08:45;13,69
28.03.2024;08:30;13,41
28.03.2024;08:15;13,29
28.03.2024;08:00;13,16
28.03.2024;07:45;13,07
28.03.2024;07:30;12,98
28.03.2024;07:15;12,95
28.03.2024;07:00;12,95
28.03.2024;06:45;12,95
28.03.2024;06:30;12,95
28.03.2024;06:15;12,95
28.03.2024;06:00;12,95
28.03.2024;05:45;12,95
28.03.2024;05:30;12,95
28.03.2024;05:15;12,95
28.03.2024;05:00;12,95
28.03.2024;04:45;12,95
28.03.2024;04:30;12,98
28.03.2024;04:15;12,95
28.03.2024;04:00;12,98
28.03.2024;03:45;12,98
28.03.2024;03:30;12,98
28.03.2024;03:15;12,98
28.03.2024;03:00;13,01
28.03.2024;02:45;13,01
28.03.2024;02:30;13,01
28.03.2024;02:15;13,01
28.03.2024;02:00;13,04
28.03.2024;01:45;13,04
28.03.2024;01:30;13,04
28.03.2024;01:15;13,04
28.03.2024;01:00;13,07
28.03.2024;00:45;13,07
28.03.2024;00:30;13,07
28.03.2024;00:15;13,07
28.03.2024;00:00;13,10
27.03.2024;23:45;13,13
27.03.2024;23:30;13,13
27.03.2024;23:15;13,13
27.03.2024;23:00;13,16
27.03.2024;22:45;13,19
27.03.2024;22:30;13,19
27.03.2024;22:15;13,19
27.03.2024;22:00;13,23
27.03.2024;21:45;13,26
27.03.2024;21:30;13,29
27.03.2024;21:15;13,32
27.03.2024;21:00;13,35
27.03.2024;20:45;13,35
27.03.2024;20:30;13,38
27.03.2024;20:15;13,41
27.03.2024;20:00;13,44
27.03.2024;19:45;13,47
27.03.2024;19:30;13,50
27.03.2024;19:15;13,53
27.03.2024;19:00;13,60
27.03.2024;18:45;13,63
27.03.2024;18:30;13,66
27.03.2024;18:15;13,69
27.03.2024;18:00;13,75
27.03.2024;17:45;13,78
27.03.2024;17:30;13,87
27.03.2024;17:15;13,87
27.03.2024;17:00;13,91
27.03.2024;16:45;13,87
27.03.2024;16:30;13,87
27.03.2024;16:15;13,87
27.03.2024;16:00;13,87
27.03.2024;15:45;13,87
27.03.2024;15:30;13,91
27.03.2024;15:15;13,91
27.03.2024;15:00;13,87
27.03.2024;14:45;13,91
27.03.2024;14:30;13,87
27.03.2024;14:15;13,91
27.03.2024;14:00;13,91
27.03.2024;13:45;13,91
27.03.2024;13:30;13,87
27.03.2024;13:15;13,87
27.03.2024;13:00;13,91
27.03.2024;12:45;13,91
27.03.2024;12:30;13,91
27.03.2024;12:15;13,91
27.03.2024;12:00;13,91
27.03.2024;11:45;13,91
27.03.2024;11:30;13,91
27.03.2024;11:15;13,91
27.03.2024;11:00;13,91
27.03.2024;10:45;13,91
27.03.2024;10:30;13,91
27.03.2024;10:15;13,87
27.03.2024;10:00;13,91
27.03.2024;09:45;13,91
27.03.2024;09:30;13,91
27.03.2024;09:15;13,91
27.03.2024;09:00;13,91
27.03.2024;08:45;13,91
27.03.2024;08:30;13,91
27.03.2024;08:15;13,91
27.03.2024;08:00;13,35
27.03.2024;07:45;13,16
27.03.2024;07:30;13,07
27.03.2024;07:15;13,04
27.03.2024;07:00;12,95
27.03.2024;06:45;12,95
27.03.2024;06:30;12,95
27.03.2024;06:15;12,95
27.03.2024;06:00;12,95
27.03.2024;05:45;12,95
27.03.2024;05:30;12,95
27.03.2024;05:15;12,95
27.03.2024;05:00;12,98
27.03.2024;04:45;12,98
27.03.2024;04:30;12,98
27.03.2024;04:15;12,98
27.03.2024;04:00;12,98
27.03.2024;03:45;12,98
27.03.2024;03:30;13,01
27.03.2024;03:15;13,01
27.03.2024;03:00;13,01
27.03.2024;02:45;13,01
27.03.2024;02:30;13,04
27.03.2024;02:15;13,04
27.03.2024;02:00;13,04
27.03.2024;01:45;13,07
27.03.2024;01:30;13,07
27.03.2024;01:15;13,07
27.03.2024;01:00;13,07
27.03.2024;00:45;13,10
27.03.2024;00:30;13,10
27.03.2024;00:15;13,13
27.03.2024;00:00;13,13
26.03.2024;23:45;13,16
26.03.2024;23:30;13,16
26.03.2024;23:15;13,19
26.03.2024;23:00;13,19
26.03.2024;22:45;13,23
26.03.2024;22:30;13,23
26.03.2024;22:15;13,26
26.03.2024;22:00;13,29
26.03.2024;21:45;13,32
26.03.2024;21:30;13,35
26.03.2024;21:15;13,38
26.03.2024;21:00;13,41
26.03.2024;20:45;13,44
26.03.2024;20:30;13,47
26.03.2024;20:15;13,50
26.03.2024;20:00;13,53
26.03.2024;19:45;13,57
26.03.2024;19:30;13,60
26.03.2024;19:15;13,66
26.03.2024;19:00;13,69
26.03.2024;18:45;13,75
26.03.2024;18:30;13,78
26.03.2024;18:15;13,84
26.03.2024;18:00;13,91
26.03.2024;17:45;13,91
26.03.2024;17:30;13,91
26.03.2024;17:15;13,87
26.03.2024;17:00;13,91
26.03.2024;16:45;13,91
26.03.2024;16:30;13,91
26.03.2024;16:15;13,91
26.03.2024;16:00;13,91
26.03.2024;15:45;13,91
26.03.2024;15:30;13,91
26.03.2024;15:15;13,91
26.03.2024;15:00;13,91
26.03.2024;14:45;13,91
26.03.2024;14:30;13,91
26.03.2024;14:15;13,91
26.03.2024;14:00;13,91
26.03.2024;13:45;13,91
26.03.2024;13:30;13,91
26.03.2024;13:15;13,91
26.03.2024;13:00;13,91
26.03.2024;12:45;13,91
26.03.2024;12:30;13,87
26.03.2024;12:15;13,91
26.03.2024;12:00;13,91
26.03.2024;11:45;13,91
26.03.2024;11:30;13,91
26.03.2024;11:15;13,91
26.03.2024;11:00;13,91
26.03.2024;10:45;13,91
26.03.2024;10:30;13,91
26.03.2024;10:15;13,91
26.03.2024;10:00;13,91
26.03.2024;09:45;13,91
26.03.2024;09:30;13,91
26.03.2024;09:15;13,87
26.03.2024;09:00;13,87
26.03.2024;08:45;13,60
26.03.2024;08:30;13,47
26.03.2024;08:15;13,32
26.03.2024;08:00;13,19
26.03.2024;07:45;13,10
26.03.2024;07:30;13,04
26.03.2024;07:15;12,98
26.03.2024;07:00;12,95
26.03.2024;06:45;12,95
26.03.2024;06:30;12,95
26.03.2024;06:15;12,95
26.03.2024;06:00;12,95
26.03.2024;05:45;12,95
26.03.2024;05:30;12,95
26.03.2024;05:15;12,95
26.03.2024;05:00;12,98
26.03.2024;04:45;12,98
26.03.2024;04:30;12,98
26.03.2024;04:15;12,98
26.03.2024;04:00;12,98
26.03.2024;03:45;12,98
26.03.2024;03:30;12,98
26.03.2024;03:15;12,98
26.03.2024;03:00;13,01
26.03.2024;02:45;13,01
26.03.2024;02:30;13,01
26.03.2024;02:15;13,04
26.03.2024;02:00;13,04
26.03.2024;01:45;13,04
26.03.2024;01:30;13,04
26.03.2024;01:15;13,07
26.03.2024;01:00;13,07
26.03.2024;00:45;13,07
26.03.2024;00:30;13,10
26.03.2024;00:15;13,10
26.03.2024;00:00;13,13
25.03.2024;23:45;13,13
25.03.2024;23:30;13,16
25.03.2024;23:15;13,16
25.03.2024;23:00;13,19
25.03.2024;22:45;13,19
25.03.2024;22:30;13,23
25.03.2024;22:15;13,23
25.03.2024;22:00;13,29
25.03.2024;21:45;13,29
25.03.2024;21:30;13,32
25.03.2024;21:15;13,35
25.03.2024;21:00;13,38
25.03.2024;20:45;13,41
25.03.2024;20:30;13,44
25.03.2024;20:15;13,47
25.03.2024;20:00;13,50
25.03.2024;19:45;13,53
25.03.2024;19:30;13,57
25.03.2024;19:15;13,60
25.03.2024;19:00;13,66
25.03.2024;18:45;13,69
25.03.2024;18:30;13,75
25.03.2024;18:15;13,78
25.03.2024;18:00;13,87
25.03.2024;17:45;13,94
25.03.2024;17:30;13,94
25.03.2024;17:15;13,94
25.03.2024;17:00;13,94
25.03.2024;16:45;13,97
25.03.2024;16:30;13,94
25.03.2024;16:15;13,97
25.03.2024;16:00;13,94
25.03.2024;15:45;13,97
25.03.2024;15:30;13,94
25.03.2024;15:15;13,97
25.03.2024;15:00;13,94
25.03.2024;14:45;13,94
25.03.2024;14:30;13,94
25.03.2024;14:15;13,94
25.03.2024;14:00;13,97
25.03.2024;13:45;13,94
25.03.2024;13:30;13,97
25.03.2024;13:15;13,94
25.03.2024;13:00;13,97
25.03.2024;12:45;13,94
25.03.2024;12:30;13,97
25.03.2024;12:15;13,97
25.03.2024;12:00;13,94
25.03.2024;11:45;13,94
25.03.2024;11:30;13,94
25.03.2024;11:15;13,94
25.03.2024;11:00;13,94
25.03.2024;10:45;13,91
25.03.2024;10:30;13,94
25.03.2024;10:15;13,94
25.03.2024;10:00;13,75
25.03.2024;09:45;13,44
25.03.2024;09:30;13,35
25.03.2024;09:15;13,23
25.03.2024;09:00;13,19
25.03.2024;08:45;13,13
25.03.2024;08:30;13,07
25.03.2024;08:15;13,01
25.03.2024;08:00;12,98
25.03.2024;07:45;12,95
25.03.2024;07:30;12,95
25.03.2024;07:15;12,95
25.03.2024;07:00;12,95
25.03.2024;06:45;12,95
25.03.2024;06:30;12,95
25.03.2024;06:15;12,95
25.03.2024;06:00;12,95
25.03.2024;05:45;12,95
25.03.2024;05:30;12,95
25.03.2024;05:15;12,95
25.03.2024;05:00;12,98
25.03.2024;04:45;12,98
25.03.2024;04:30;12,98
25.03.2024;04:15;12,98
25.03.2024;04:00;12,98
25.03.2024;03:45;12,98
25.03.2024;03:30;12,98
25.03.2024;03:15;13,01
25.03.2024;03:00;13,01
25.03.2024;02:45;13,01
25.03.2024;02:30;13,01
25.03.2024;02:15;13,01
25.03.2024;02:00;13,04
25.03.2024;01:45;13,04
25.03.2024;01:30;13,04
25.03.2024;01:15;13,04
25.03.2024;01:00;13,07
25.03.2024;00:45;13,07
25.03.2024;00:30;13,07
25.03.2024;00:15;13,07
25.03.2024;00:00;13,10
24.03.2024;23:45;13,13
24.03.2024;23:30;13,13
24.03.2024;23:15;13,13
24.03.2024;23:00;13,16
24.03.2024;22:45;13,19
24.03.2024;22:30;13,19
24.03.2024;22:15;13,19
24.03.2024;22:00;13,23
24.03.2024;21:45;13,26
24.03.2024;21:30;13,29
24.03.2024;21:15;13,29
24.03.2024;21:00;13,32
24.03.2024;20:45;13,35
24.03.2024;20:30;13,38
24.03.2024;20:15;13,53
24.03.2024;20:00;13,44
24.03.2024;19:45;13,47
24.03.2024;19:30;13,50
24.03.2024;19:15;13,53
24.03.2024;19:00;13,60
24.03.2024;18:45;13,63
24.03.2024;18:30;13,66
24.03.2024;18:15;13,72
24.03.2024;18:00;13,78
24.03.2024;17:45;13,84
24.03.2024;17:30;13,91
24.03.2024;17:15;13,97
24.03.2024;17:00;13,97
24.03.2024;16:45;13,94
24.03.2024;16:30;13,94
24.03.2024;16:15;13,97
24.03.2024;16:00;13,94
24.03.2024;15:45;13,94
24.03.2024;15:30;13,94
24.03.2024;15:15;13,94
24.03.2024;15:00;13,94
24.03.2024;14:45;13,94
24.03.2024;14:30;13,94
24.03.2024;14:15;13,94
24.03.2024;14:00;13,94
24.03.2024;13:45;13,94
24.03.2024;13:30;13,97
24.03.2024;13:15;13,94
24.03.2024;13:00;13,94
24.03.2024;12:45;13,97
24.03.2024;12:30;13,94
24.03.2024;12:15;13,94
24.03.2024;12:00;13,94
24.03.2024;11:45;13,94
24.03.2024;11:30;13,94
24.03.2024;11:15;13,94
24.03.2024;11:00;13,94
24.03.2024;10:45;13,94
24.03.2024;10:30;13,84
24.03.2024;10:15;13,72
24.03.2024;10:00;13,60
24.03.2024;09:45;13,47
24.03.2024;09:30;13,32
24.03.2024;09:15;13,23
24.03.2024;09:00;13,16
24.03.2024;08:45;13,10
24.03.2024;08:30;13,04
24.03.2024;08:15;12,98
24.03.2024;08:00;12,98
24.03.2024;07:45;12,95
24.03.2024;07:30;12,95
24.03.2024;07:15;12,95
24.03.2024;07:00;12,95
24.03.2024;06:45;12,95
24.03.2024;06:30;12,95
24.03.2024;06:15;12,95
24.03.2024;06:00;12,95
24.03.2024;05:45;12,95
24.03.2024;05:30;12,95
24.03.2024;05:15;12,98
24.03.2024;05:00;12,98
24.03.2024;04:45;12,98
24.03.2024;04:30;12,98
24.03.2024;04:15;12,98
24.03.2024;04:00;13,01
24.03.2024;03:45;13,01
24.03.2024;03:30;13,01
24.03.2024;03:15;13,01
24.03.2024;03:00;13,01
24.03.2024;02:45;13,04
24.03.2024;02:30;13,04
24.03.2024;02:15;13,04
24.03.2024;02:00;13,04
24.03.2024;01:45;13,07
24.03.2024;01:30;13,07
24.03.2024;01:15;13,07
24.03.2024;01:00;13,07
24.03.2024;00:45;13,07
24.03.2024;00:30;13,10
24.03.2024;00:15;13,10
24.03.2024;00:00;13,13
23.03.2024;23:45;13,13
23.03.2024;23:30;13,13
23.03.2024;23:15;13,16
23.03.2024;23:00;13,19
23.03.2024;22:45;13,19
23.03.2024;22:30;13,23
23.03.2024;22:15;13,23
23.03.2024;22:00;13,26
23.03.2024;21:45;13,29
23.03.2024;21:30;13,32
23.03.2024;21:15;13,35
23.03.2024;21:00;13,35
23.03.2024;20:45;13,38
23.03.2024;20:30;13,41
23.03.2024;20:15;13,44
23.03.2024;20:00;13,47
23.03.2024;19:45;13,53
23.03.2024;19:30;13,57
23.03.2024;19:15;13,60
23.03.2024;19:00;13,66
23.03.2024;18:45;13,69
23.03.2024;18:30;13,75
23.03.2024;18:15;13,78
23.03.2024;18:00;13,87
23.03.2024;17:45;13,91
23.03.2024;17:30;13,91
23.03.2024;17:15;13,91
23.03.2024;17:00;13,91
23.03.2024;16:45;13,94
23.03.2024;16:30;13,91
23.03.2024;16:15;13,91
23.03.2024;16:00;13,91
23.03.2024;15:45;13,91
23.03.2024;15:30;13,91
23.03.2024;15:15;13,94
23.03.2024;15:00;13,91
23.03.2024;14:45;13,91
23.03.2024;14:30;13,91
23.03.2024;14:15;13,91
23.03.2024;14:00;13,94
23.03.2024;13:45;13,94
23.03.2024;13:30;13,94
23.03.2024;13:15;13,91
23.03.2024;13:00;13,91
23.03.2024;12:45;13,94
23.03.2024;12:30;13,91
23.03.2024;12:15;13,94
23.03.2024;12:00;13,91
23.03.2024;11:45;13,91
23.03.2024;11:30;13,91
23.03.2024;11:15;13,91
23.03.2024;11:00;13,91
23.03.2024;10:45;13,94
23.03.2024;10:30;13,94
23.03.2024;10:15;13,94
23.03.2024;10:00;13,94
23.03.2024;09:45;13,91
23.03.2024;09:30;13,91
23.03.2024;09:15;13,72
23.03.2024;09:00;13,44
23.03.2024;08:45;13,19
23.03.2024;08:30;13,07
23.03.2024;08:15;13,01
23.03.2024;08:00;12,95
23.03.2024;07:45;12,95
23.03.2024;07:30;12,95
23.03.2024;07:15;12,95
23.03.2024;07:00;12,95
23.03.2024;06:45;12,95
23.03.2024;06:30;12,95
23.03.2024;06:15;12,95
23.03.2024;06:00;12,95
23.03.2024;05:45;12,95
23.03.2024;05:30;12,95
23.03.2024;05:15;12,95
23.03.2024;05:00;12,95
23.03.2024;04:45;12,95
23.03.2024;04:30;12,95
23.03.2024;04:15;12,95
23.03.2024;04:00;12,98
23.03.2024;03:45;12,95
23.03.2024;03:30;12,98
23.03.2024;03:15;12,98
23.03.2024;03:00;12,98
23.03.2024;02:45;12,98
23.03.2024;02:30;12,98
23.03.2024;02:15;12,98
23.03.2024;02:00;13,01
23.03.2024;01:45;13,01
23.03.2024;01:30;13,01
23.03.2024;01:15;13,01
23.03.2024;01:00;13,04
23.03.2024;00:45;13,04
23.03.2024;00:30;13,04
23.03.2024;00:15;13,04
23.03.2024;00:00;13,07
22.03.2024;23:45;13,07
22.03.2024;23:30;13,07
22.03.2024;23:15;13,07
22.03.2024;23:00;13,10
22.03.2024;22:45;13,10
22.03.2024;22:30;13,10
22.03.2024;22:15;13,13
22.03.2024;22:00;13,13
22.03.2024;21:45;13,16
22.03.2024;21:30;13,16
22.03.2024;21:15;13,19
22.03.2024;21:00;13,19
22.03.2024;20:45;13,23
22.03.2024;20:30;13,26
22.03.2024;20:15;13,26
22.03.2024;20:00;13,29
22.03.2024;19:45;13,32
22.03.2024;19:30;13,35
22.03.2024;19:15;13,38
22.03.2024;19:00;13,41
22.03.2024;18:45;13,44
22.03.2024;18:30;13,47
22.03.2024;18:15;13,50
22.03.2024;18:00;13,53
22.03.2024;17:45;13,60
22.03.2024;17:30;13,63
22.03.2024;17:15;13,66
22.03.2024;17:00;13,72
22.03.2024;16:45;13,78
22.03.2024;16:30;13,84
22.03.2024;16:15;13,91
22.03.2024;16:00;13,91
22.03.2024;15:45;13,87
22.03.2024;15:30;13,91
22.03.2024;15:15;13,91
22.03.2024;15:00;13,87
22.03.2024;14:45;13,91
22.03.2024;14:30;13,91
22.03.2024;14:15;13,91
22.03.2024;14:00;13,91
22.03.2024;13:45;13,91
22.03.2024;13:30;13,91
22.03.2024;13:15;13,91
22.03.2024;13:00;13,91
22.03.2024;12:45;13,91
22.03.2024;12:30;13,91
22.03.2024;12:15;13,91
22.03.2024;12:00;13,91
22.03.2024;11:45;13,91
22.03.2024;11:30;13,91
22.03.2024;11:15;13,91
22.03.2024;11:00;13,91
22.03.2024;10:45;13,91
22.03.2024;10:30;13,91
22.03.2024;10:15;13,87
22.03.2024;10:00;13,91
22.03.2024;09:45;13,84
22.03.2024;09:30;13,57
22.03.2024;09:15;13,29
22.03.2024;09:00;13,19
22.03.2024;08:45;13,13
22.03.2024;08:30;13,07
22.03.2024;08:15;13,01
22.03.2024;08:00;12,98
22.03.2024;07:45;12,95
22.03.2024;07:30;12,95
22.03.2024;07:15;12,95
22.03.2024;07:00;12,95
22.03.2024;06:45;12,95
22.03.2024;06:30;12,95
22.03.2024;06:15;12,95
22.03.2024;06:00;12,98
22.03.2024;05:45;12,98
22.03.2024;05:30;12,98
22.03.2024;05:15;12,98
22.03.2024;05:00;12,98
22.03.2024;04:45;12,98
22.03.2024;04:30;12,98
22.03.2024;04:15;12,98
22.03.2024;04:00;13,01
22.03.2024;03:45;13,01
22.03.2024;03:30;13,01
22.03.2024;03:15;13,01
22.03.2024;03:00;13,04
22.03.2024;02:45;13,04
22.03.2024;02:30;13,04
22.03.2024;02:15;13,04
22.03.2024;02:00;13,04
22.03.2024;01:45;13,04
22.03.2024;01:30;13,07
22.03.2024;01:15;13,07
22.03.2024;01:00;13,07
22.03.2024;00:45;13,07
22.03.2024;00:30;13,10
22.03.2024;00:15;13,10
22.03.2024;00:00;13,13
21.03.2024;23:45;13,13
21.03.2024;23:30;13,13
21.03.2024;23:15;13,16
21.03.2024;23:00;13,19
21.03.2024;22:45;13,19
21.03.2024;22:30;13,19
21.03.2024;22:15;13,23
21.03.2024;22:00;13,26
21.03.2024;21:45;13,29
21.03.2024;21:30;13,32
21.03.2024;21:15;13,32
21.03.2024;21:00;13,35
21.03.2024;20:45;13,38
21.03.2024;20:30;13,41
21.03.2024;20:15;13,44
21.03.2024;20:00;13,47
21.03.2024;19:45;13,53
21.03.2024;19:30;13,57
21.03.2024;19:15;13,60
21.03.2024;19:00;13,66
21.03.2024;18:45;13,69
21.03.2024;18:30;13,75
21.03.2024;18:15;13,78
21.03.2024;18:00;13,87
21.03.2024;17:45;13,91
21.03.2024;17:30;13,91
21.03.2024;17:15;13,91
21.03.2024;17:00;13,91
21.03.2024;16:45;13,91
21.03.2024;16:30;13,91
21.03.2024;16:15;13,91
21.03.2024;16:00;13,91
21.03.2024;15:45;13,91
21.03.2024;15:30;13,91
21.03.2024;15:15;13,94
21.03.2024;15:00;13,91
21.03.2024;14:45;13,91
21.03.2024;14:30;13,91
21.03.2024;14:15;13,91
21.03.2024;14:00;13,91
21.03.2024;13:45;13,91
21.03.2024;13:30;13,91
21.03.2024;13:15;13,91
21.03.2024;13:00;13,91
21.03.2024;12:45;13,91
21.03.2024;12:30;13,91
21.03.2024;12:15;13,91
21.03.2024;12:00;13,91
21.03.2024;11:45;13,91
21.03.2024;11:30;13,91
21.03.2024;11:15;13,91
21.03.2024;11:00;13,91
21.03.2024;10:45;13,91
21.03.2024;10:30;13,91
21.03.2024;10:15;13,87
21.03.2024;10:00;13,91
21.03.2024;09:45;13,60
21.03.2024;09:30;13,38
21.03.2024;09:15;13,23
21.03.2024;09:00;13,19
21.03.2024;08:45;13,13
21.03.2024;08:30;13,04
21.03.2024;08:15;13,01
21.03.2024;08:00;12,98
21.03.2024;07:45;12,95
21.03.2024;07:30;12,95
21.03.2024;07:15;12,95
21.03.2024;07:00;12,95
21.03.2024;06:45;12,95
21.03.2024;06:30;12,95
21.03.2024;06:15;12,95
21.03.2024;06:00;12,98
21.03.2024;05:45;12,98
21.03.2024;05:30;12,98
21.03.2024;05:15;12,98
21.03.2024;05:00;12,98
21.03.2024;04:45;12,98
21.03.2024;04:30;12,98
21.03.2024;04:15;12,98
21.03.2024;04:00;12,98
21.03.2024;03:45;13,01
21.03.2024;03:30;12,98
21.03.2024;03:15;13,01
21.03.2024;03:00;13,01
21.03.2024;02:45;13,01
21.03.2024;02:30;13,01
21.03.2024;02:15;13,01
21.03.2024;02:00;13,04
21.03.2024;01:45;13,04
21.03.2024;01:30;13,04
21.03.2024;01:15;13,04
21.03.2024;01:00;13,07
21.03.2024;00:45;13,07
21.03.2024;00:30;13,07
21.03.2024;00:15;13,07
21.03.2024;00:00;13,10
20.03.2024;23:45;13,10
20.03.2024;23:30;13,10
20.03.2024;23:15;13,13
20.03.2024;23:00;13,13
20.03.2024;22:45;13,13
20.03.2024;22:30;13,16
20.03.2024;22:15;13,19
20.03.2024;22:00;13,19
20.03.2024;21:45;13,23
20.03.2024;21:30;13,23
20.03.2024;21:15;13,26
20.03.2024;21:00;13,29
20.03.2024;20:45;13,32
20.03.2024;20:30;13,32
20.03.2024;20:15;13,35
20.03.2024;20:00;13,38
20.03.2024;19:45;13,41
20.03.2024;19:30;13,44
20.03.2024;19:15;13,47
20.03.2024;19:00;13,53
20.03.2024;18:45;13,57
20.03.2024;18:30;13,60
20.03.2024;18:15;13,63
20.03.2024;18:00;13,69
20.03.2024;17:45;13,72
20.03.2024;17:30;13,78
20.03.2024;17:15;13,84
20.03.2024;17:00;13,91
20.03.2024;16:45;13,91
20.03.2024;16:30;13,87
20.03.2024;16:15;13,91
20.03.2024;16:00;13,91
20.03.2024;15:45;13,87
20.03.2024;15:30;13,91
20.03.2024;15:15;13,91
20.03.2024;15:00;13,87
20.03.2024;14:45;13,91
20.03.2024;14:30;13,91
20.03.2024;14:15;13,91
20.03.2024;14:00;13,91
20.03.2024;13:45;13,91
20.03.2024;13:30;13,91
20.03.2024;13:15;13,91
20.03.2024;13:00;13,94
20.03.2024;12:45;13,91
20.03.2024;12:30;13,87
20.03.2024;12:15;13,87
20.03.2024;12:00;13,91
20.03.2024;11:45;13,91
20.03.2024;11:30;13,91
20.03.2024;11:15;13,91
20.03.2024;11:00;13,91
20.03.2024;10:45;13,87
20.03.2024;10:30;13,91
20.03.2024;10:15;13,91
20.03.2024;10:00;13,87
20.03.2024;09:45;13,91
20.03.2024;09:30;13,91
20.03.2024;09:15;13,87
20.03.2024;09:00;13,91
20.03.2024;08:45;13,91
20.03.2024;08:30;13,91
20.03.2024;08:15;13,91
20.03.2024;08:00;13,04
20.03.2024;07:45;12,98
20.03.2024;07:30;12,98
20.03.2024;07:15;12,95
20.03.2024;07:00;12,98
20.03.2024;06:45;12,98
20.03.2024;06:30;12,98
20.03.2024;06:15;12,98
20.03.2024;06:00;12,98
20.03.2024;05:45;12,98
20.03.2024;05:30;12,98
20.03.2024;05:15;12,98
20.03.2024;05:00;12,98
20.03.2024;04:45;13,01
20.03.2024;04:30;13,01
20.03.2024;04:15;12,98
20.03.2024;04:00;13,01
20.03.2024;03:45;13,01
20.03.2024;03:30;13,01
20.03.2024;03:15;13,01
20.03.2024;03:00;13,04
20.03.2024;02:45;13,04
20.03.2024;02:30;13,04
20.03.2024;02:15;13,04
20.03.2024;02:00;13,04
20.03.2024;01:45;13,07
20.03.2024;01:30;13,07
20.03.2024;01:15;13,07
20.03.2024;01:00;13,07
20.03.2024;00:45;13,07
20.03.2024;00:30;13,07
20.03.2024;00:15;13,10
20.03.2024;00:00;13,10
19.03.2024;23:45;13,13
19.03.2024;23:30;13,13
19.03.2024;23:15;13,13
19.03.2024;23:00;13,16
19.03.2024;22:45;13,19
19.03.2024;22:30;13,19
19.03.2024;22:15;13,19
19.03.2024;22:00;13,23
19.03.2024;21:45;13,26
19.03.2024;21:30;13,29
19.03.2024;21:15;13,29
19.03.2024;21:00;13,35
19.03.2024;20:45;13,35
19.03.2024;20:30;13,38
19.03.2024;20:15;13,41
19.03.2024;20:00;13,44
19.03.2024;19:45;13,47
19.03.2024;19:30;13,50
19.03.2024;19:15;13,53
19.03.2024;19:00;13,60
19.03.2024;18:45;13,63
19.03.2024;18:30;13,69
19.03.2024;18:15;13,72
19.03.2024;18:00;13,78
19.03.2024;17:45;13,84
19.03.2024;17:30;13,91
19.03.2024;17:15;13,87
19.03.2024;17:00;13,87
19.03.2024;16:45;13,87
19.03.2024;16:30;13,87
19.03.2024;16:15;13,87
19.03.2024;16:00;13,87
19.03.2024;15:45;13,91
19.03.2024;15:30;13,87
19.03.2024;15:15;13,87
19.03.2024;15:00;13,91
19.03.2024;14:45;13,87
19.03.2024;14:30;13,87
19.03.2024;14:15;13,87
19.03.2024;14:00;13,87
19.03.2024;13:45;13,87
19.03.2024;13:30;13,87
19.03.2024;13:15;13,87
19.03.2024;13:00;13,87
19.03.2024;12:45;13,87
19.03.2024;12:30;13,87
19.03.2024;12:15;13,87
19.03.2024;12:00;13,87
19.03.2024;11:45;13,91
19.03.2024;11:30;13,87
19.03.2024;11:15;13,87
19.03.2024;11:00;13,91
19.03.2024;10:45;13,91
19.03.2024;10:30;13,87
19.03.2024;10:15;13,87
19.03.2024;10:00;13,84
19.03.2024;09:45;13,87
19.03.2024;09:30;13,97
19.03.2024;09:15;13,84
19.03.2024;09:00;13,87
19.03.2024;08:45;13,84
19.03.2024;08:30;13,87
19.03.2024;08:15;13,84
19.03.2024;08:00;13,94
19.03.2024;07:45;13,87
19.03.2024;07:30;13,91
19.03.2024;07:15;13,87
19.03.2024;07:00;12,98
19.03.2024;06:45;12,95
19.03.2024;06:30;12,95
19.03.2024;06:15;12,98
19.03.2024;06:00;12,98
19.03.2024;05:45;12,98
19.03.2024;05:30;12,98
19.03.2024;05:15;12,98
19.03.2024;05:00;12,98
19.03.2024;04:45;12,98
19.03.2024;04:30;12,98
19.03.2024;04:15;12,98
19.03.2024;04:00;13,01
19.03.2024;03:45;13,01
19.03.2024;03:30;13,01
19.03.2024;03:15;13,01
19.03.2024;03:00;13,04
19.03.2024;02:45;13,04
19.03.2024;02:30;13,04
19.03.2024;02:15;13,04
19.03.2024;02:00;13,04
19.03.2024;01:45;13,04
19.03.2024;01:30;13,04
19.03.2024;01:15;13,07
19.03.2024;01:00;13,07
19.03.2024;00:45;13,07
19.03.2024;00:30;13,07
19.03.2024;00:15;13,10
19.03.2024;00:00;13,10
18.03.2024;23:45;13,23
18.03.2024;23:30;13,13
18.03.2024;23:15;13,13
18.03.2024;23:00;13,16
18.03.2024;22:45;13,19
18.03.2024;22:30;13,19
18.03.2024;22:15;13,19
18.03.2024;22:00;13,23
18.03.2024;21:45;13,26
18.03.2024;21:30;13,29
18.03.2024;21:15;13,29
18.03.2024;21:00;13,32
18.03.2024;20:45;13,35
18.03.2024;20:30;13,38
18.03.2024;20:15;13,41
18.03.2024;20:00;13,44
18.03.2024;19:45;13,47
18.03.2024;19:30;13,50
18.03.2024;19:15;13,53
18.03.2024;19:00;13,60
18.03.2024;18:45;13,63
18.03.2024;18:30;13,66
18.03.2024;18:15;13,72
18.03.2024;18:00;13,78
18.03.2024;17:45;13,84
18.03.2024;17:30;13,87
18.03.2024;17:15;13,91
18.03.2024;17:00;13,84
18.03.2024;16:45;13,87
18.03.2024;16:30;13,87
18.03.2024;16:15;13,84
18.03.2024;16:00;13,84
18.03.2024;15:45;13,87
18.03.2024;15:30;13,87
18.03.2024;15:15;13,84
18.03.2024;15:00;13,87
18.03.2024;14:45;13,87
18.03.2024;14:30;14,00
18.03.2024;14:15;13,84
18.03.2024;14:00;13,84
18.03.2024;13:45;13,91
18.03.2024;13:30;13,84
18.03.2024;13:15;13,87
18.03.2024;13:00;13,91
18.03.2024;12:45;13,91
18.03.2024;12:30;13,87
18.03.2024;12:15;13,91
18.03.2024;12:00;13,87
18.03.2024;11:45;13,84
18.03.2024;11:30;13,87
18.03.2024;11:15;13,87
18.03.2024;11:00;13,87
18.03.2024;10:45;13,87
18.03.2024;10:30;13,87
18.03.2024;10:15;13,87
18.03.2024;10:00;13,94
18.03.2024;09:45;13,87
18.03.2024;09:30;13,87
18.03.2024;09:15;13,87
18.03.2024;09:00;13,91
18.03.2024;08:45;13,87
18.03.2024;08:30;13,87
18.03.2024;08:15;13,87
18.03.2024;08:00;13,87
18.03.2024;07:45;13,91
18.03.2024;07:30;13,91
18.03.2024;07:15;13,87
18.03.2024;07:00;12,98
18.03.2024;06:45;12,98
18.03.2024;06:30;12,98
18.03.2024;06:15;12,98
18.03.2024;06:00;12,98
18.03.2024;05:45;12,98
18.03.2024;05:30;12,98
18.03.2024;05:15;12,98
18.03.2024;05:00;13,01
18.03.2024;04:45;13,01
18.03.2024;04:30;13,01
18.03.2024;04:15;13,01
18.03.2024;04:00;13,01
18.03.2024;03:45;13,04
18.03.2024;03:30;13,04
18.03.2024;03:15;13,04
18.03.2024;03:00;13,04
18.03.2024;02:45;13,04
18.03.2024;02:30;13,04
18.03.2024;02:15;13,04
18.03.2024;02:00;13,07
18.03.2024;01:45;13,07
18.03.2024;01:30;13,07
18.03.2024;01:15;13,07
18.03.2024;01:00;13,07